Location: Rancho Del Sol Observatory
(38.7214°N, 120.6350°W)
Time: 11:36:30
(UTC-07:00)

Cosmos 2221 Rocket - Visible Passes

Search period start: 26 August 2016 00:00
Search period end: 05 September 2016 00:00
Orbit: 620 x 650 km, 82.5° (Epoch: 25 August)

Date Brightness Start Highest point End Pass type
(mag) Time Alt. Az. Time Alt. Az. Time Alt. Az.
26 Aug 4.2 04:50:40 10° S 04:54:59 55° E 04:59:19 10° NNE visible
27 Aug 3.5 05:13:06 12° SSW 05:17:13 66° W 05:21:38 10° N visible
28 Aug 5.9 03:58:30 11° SE 04:01:36 20° E 04:04:52 10° NE visible
28 Aug 4.5 05:36:02 12° SW 05:39:35 30° WNW 05:43:29 10° NNW visible
29 Aug 4.6 04:21:22 23° SSE 04:23:40 43° E 04:27:52 10° NNE visible
29 Aug 5.3 05:59:34 10° WSW 06:02:05 15° WNW 06:04:36 10° NW visible
30 Aug 3.4 04:44:10 38° SSW 04:45:51 83° W 04:50:17 10° N visible
31 Aug 6.0 03:29:25 16° ESE 03:30:20 17° E 03:33:07 10° NE visible
31 Aug 4.1 05:06:56 31° WSW 05:08:10 37° WNW 05:12:17 10° N visible
01 Sep 4.9 03:52:07 34° E 03:52:21 35° E 03:56:22 10° NNE visible
01 Sep 5.1 05:29:38 17° W 05:30:38 18° WNW 05:33:41 10° NNW visible
02 Sep 3.6 04:14:46 74° NE 04:14:46 74° NE 04:18:55 10° N visible
03 Sep 6.4 02:59:53 13° ENE 02:59:53 13° ENE 03:01:10 10° ENE visible
03 Sep 4.1 04:37:23 43° NW 04:37:23 43° NW 04:41:02 10° N visible
04 Sep 5.8 03:22:28 23° ENE 03:22:28 23° ENE 03:24:48 10° NNE visible
04 Sep 5.1 04:59:57 21° WNW 04:59:57 21° WNW 05:02:39 10° NNW visible
